Cloud_Cover
90 83 59 26 5 75 94 100 99 40 100 98 100 100 100 77 82 89 85 82 94 100 100 68 14 33 86 32 31 68 100 100 100 100 100 98 79 100 100 97 86 84 98
98 76 64 98 100 100 100 100 100 98 100 100 100 100 86 100 96 96 78 100 100 100 100 100 100 95 93 99 100 100 100 86 100 100 100 100 93 99 97 100 22 51 5
99 85 100 100 96 100 100 100 100 100 100 100 100 100 100 100 100 100 100 97 100 100 95 100 100 100 97 99 100 99 100 54 74 100 70 87 48 6 26 5 5 5 17
100 100 100 100 99 100 100 100 100 100 100 100 100 100 100 100 100 100 100 100 100 49 91 90 88 69 68 97 15 28 5 16 12 40 5 5 5 5 6 5 33 68 71
100 100 100 100 100 100 100 100 100 100 100 100 100 100 100 100 100 100 100 100 89 100 100 100 100 52 47 8 17 5 5 6 5 6 5 9 10 26 58 63 93 73 49
100 100 100 100 100 100 100 100 100 100 100 100 100 100 100 100 100 96 100 100 100 92 58 55 5 33 38 22 5 5 5 5 5 18 6 33 7 5 46 99 73 77 77
99 100 100 100 100 100 100 100 100 100 100 100 100 100 100 100 100 100 100 100 100 100 71 26 38 61 61 5 5 5 5 5 5 6 44 31 7 29 60 86 59 76 83
100 100 100 100 100 100 100 100 100 100 100 100 100 100 100 100 100 100 100 100 100 95 72 100 98 70 5 5 47 6 5 18 14 19 49 53 65 48 62 73 46 19 44
100 100 100 100 100 100 100 100 100 100 100 100 100 100 100 100 100 100 100 100 100 99 100 100 99 86 16 98 20 44 54 93 20 87 98 54 64 18 45 63 5 78 79
100 100 100 100 100 100 100 100 100 100 100 100 100 100 100 100 100 100 100 100 100 100 100 100 100 100 99 9 23 5 12 40 95 100 94 61 92 96 32 90 90 100 100
100 100 100 100 100 100 100 100 100 100 100 100 100 100 100 100 100 100 100 100 100 100 100 100 100 99 40 14 9 17 66 99 99 100 91 73 99 100 100 100 100 100 100
100 100 100 100 100 100 100 100 100 100 100 100 100 100 100 100 100 100 100 100 100 100 100 100 100 100 85 80 96 100 100 100 100 100 100 75 100 100 100 100 100 89 98
100 100 100 100 100 100 100 100 100 100 100 100 100 100 100 100 100 100 100 100 100 100 100 100 100 100 100 100 100 100 100 100 100 100 91 92 100 100 100 100 88 86 88
100 100 100 100 100 100 100 100 100 100 100 100 100 100 100 100 100 100 100 100 100 100 100 100 100 100 100 100 100 100 100 100 100 100 100 100 100 80 100 100 97 100 99
100 100 100 100 100 100 100 100 100 100 100 100 100 100 100 100 100 100 100 100 100 100 100 100 100 100 100 100 100 100 86 100 100 100 100 100 97 81 74 80 98 100 97
100 100 100 100 100 100 100 100 100 100 100 100 100 100 100 100 100 100 100 100 100 100 100 100 100 100 100 100 100 100 100 100 100 95 100 88 91 95 88 76 70 90 90
100 100 100 100 100 100 100 100 100 100 100 100 100 100 100 100 100 100 100 100 100 100 100 100 100 100 100 100 100 100 100 100 100 100 99 96 94 94 96 96 83 77 83
100 100 100 100 100 100 100 100 100 100 100 100 100 100 100 100 100 100 100 100 100 100 100 100 100 100 100 100 100 100 100 100 100 100 100 100 100 100 94 98 91 97 100
100 100 100 100 100 100 100 100 100 100 100 100 100 100 100 100 100 100 100 100 100 100 100 100 100 100 100 100 100 100 100 100 98 98 100 100 100 100 95 97 100 100 98
100 100 100 100 100 100 100 100 100 100 100 100 100 100 100 100 100 100 100 100 100 100 100 100 100 100 100 100 100 100 97 76 95 100 100 100 100 100 98 99 100 100 100
100 100 100 100 100 100 100 100 100 100 100 100 100 100 100 100 100 100 100 100 100 100 100 100 100 100 100 100 100 100 100 91 79 100 100 100 100 98 92 100 100 100 100
100 100 100 100 100 100 100 100 100 100 100 100 100 100 100 100 100 100 100 100 100 100 100 100 100 100 97 97 100 100 100 100 86 100 100 100 100 100 100 100 99 100 100
100 100 100 100 100 100 100 100 100 100 100 100 100 100 100 100 100 100 100 100 100 100 100 100 100 84 64 96 100 100 100 98 90 99 100 100 100 100 100 100 100 100 99
100 100 100 100 100 100 100 100 100 100 100 100 100 100 100 100 100 100 100 100 100 100 100 84 64 53 48 57 83 99 95 94 96 100 100 100 100 100 100 96 99 100 100
100 100 100 100 100 100 100 100 100 100 100 100 100 100 100 100 100 100 100 100 100 100 43 6 40 26 23 6 5 16 34 99 100 100 100 100 100 97 89 92 96 100 100
100 100 100 100 100 100 100 100 100 100 100 100 100 100 100 100 100 100 100 100 100 70 83 86 29 44 5 5 6 60 91 100 95 100 100 100 100 92 91 92 100 100 100